Retour au catalogue

STARLINK-32001

ActifCommunicationsVLEO
NORAD 60110·PAYLOAD·🇺🇸 United States

Lancé Jun 23, 2024 depuis Cape Canaveral Space Force Station

Loading…

Prochains Passages (prochaines 24 heures)

TLE

FraisSource: CelesTrak SupGP

Époque: Sep 14, 2026, 15:25 UTC

1 60110C 24117V   26257.64284722 -.00022116  00000+0 -65358-3 0  2570
2 60110  53.1565 236.7575 0001219  97.2413 277.8986 15.34394303    12

Suivez STARLINK-32001 en temps réel avec AllMySat

Download on the App Store